Florennes, Belgium

9:53 PM CEST on April 27, 2017 (GMT +0200)
Florennes Air Base

Weather History for EBFS - July, 2013

Change the Weather History Date:

Friday, July 12, 2013

  Actual Average Record
Temperature  
Mean Temperature 56 °F -  
Max Temperature 65 °F 66 °F 78 °F (1999)
Min Temperature 47 °F 54 °F 32 °F (1996)
Degree Days  
Heating Degree Days 9    
Growing Degree Days 6 (Base 50)    
Moisture  
Dew Point 50 °F    
Average Humidity 80    
Maximum Humidity 100    
Minimum Humidity 51    
Precipitation  
Precipitation 0.00 in - - ()
Sea Level Pressure  
Sea Level Pressure 30.21 in    
Wind  
Wind Speed 6 mph ()    
Max Wind Speed 11 mph    
Max Gust Speed -    
Visibility 6.3 miles    
Events Fog    
Averages and records for this station are not official NWS values.
T = Trace of Precipitation, MM = Missing Value Source: Averaged Metar Reports

Daily Weather History Graph

Daily Weather History Graph

Search for Another Location

Airport or City:

Trip Planner

Search our weather history database for the weather conditions in past years. The results will help you decide how hot, cold, wet, or windy it might be!

Date:

Astronomy

Jul. 12, 2013 Rise Set
Actual Time 5:44 AM CEST 9:48 PM CEST
Civil Twilight 5:01 AM CEST 10:31 PM CEST
Nautical Twilight 4:00 AM CEST 11:32 PM CEST
Astronomical Twilight 2:19 AM CEST 1:14 AM CEST
Moon 10:16 AM CEST (7/12) 11:17 PM CEST (7/12)
Length of Visible Light 17h 29m
Length of Day
16h 04m
Waxing Crescent, 15% of the Moon is Illuminated
Jul 12
Waxing Crescent
Jul 16
First Quarter
Jul 22
Full
Jul 29
Last Quarter
Aug 6
New

Hourly Weather History & Observations

Time (CEST) Temp. Dew Point Humidity Pressure Visibility Wind Dir Wind Speed Gust Speed Precip Events Conditions
12:25 AM 51.8 °F 48.2 °F 88% 30.21 in 6.2 mi NE 6.9 mph - N/A   Partly Cloudy
12:55 AM 51.8 °F 48.2 °F 88% 30.21 in 6.2 mi Variable 3.5 mph - N/A   Partly Cloudy
1:25 AM 51.8 °F 48.2 °F 88% 30.21 in 6.2 mi Variable 2.3 mph - N/A   Partly Cloudy
1:55 AM 51.8 °F 48.2 °F 88% 30.21 in 6.2 mi Variable 3.5 mph - N/A   Partly Cloudy
2:00 AM 52 °F 48 °F 82% 30.22 in 16 mi 4.5 mph - -   Scattered Clouds
2:25 AM 51.8 °F 48.2 °F 88% 30.21 in 6.2 mi NE 4.6 mph - N/A   Partly Cloudy
2:55 AM 50.0 °F 46.4 °F 87% 30.21 in 6.2 mi Variable 3.5 mph - N/A   Partly Cloudy
3:00 AM 50 °F 47 °F 86% 30.22 in 16 mi 2.2 mph - -   Scattered Clouds
3:25 AM 50.0 °F 46.4 °F 87% 30.18 in 6.2 mi Variable 3.5 mph - N/A   Partly Cloudy
3:55 AM 50.0 °F 46.4 °F 87% 30.18 in 6.2 mi Variable 3.5 mph - N/A   Partly Cloudy
4:00 AM 49 °F 46 °F 87% 30.22 in 16 mi 2.2 mph - -   Scattered Clouds
4:25 AM 48.2 °F 46.4 °F 93% 30.18 in 6.2 mi Variable 3.5 mph - N/A   Partly Cloudy
4:55 AM 50.0 °F 46.4 °F 87% 30.18 in 6.2 mi NNE 4.6 mph - N/A   Partly Cloudy
5:00 AM 49 °F 47 °F 90% 30.21 in 7 mi NNE 4.5 mph - -   Clear
5:25 AM 48.2 °F 46.4 °F 93% 30.18 in 5.6 mi NNE 5.8 mph - N/A   Partly Cloudy
5:41 AM 48.2 °F 46.4 °F 93% 30.18 in 4.3 mi NNE 4.6 mph - N/A   Partly Cloudy
5:55 AM 48.2 °F 46.4 °F 93% 30.18 in 6.2 mi NNE 5.8 mph - N/A   Partly Cloudy
6:00 AM 48 °F 47 °F 96% 30.22 in 4 mi NNE 6.7 mph - -   Clear
6:19 AM 48.2 °F 46.4 °F 93% 30.18 in 2.8 mi NNE 4.6 mph - N/A   Partly Cloudy
6:25 AM 48.2 °F 46.4 °F 93% 30.18 in 2.5 mi NNE 4.6 mph - N/A   Partly Cloudy
6:39 AM 48.2 °F 46.4 °F 93% 30.18 in 1.9 mi Variable 2.3 mph - N/A   Scattered Clouds
6:55 AM 48.2 °F 48.2 °F 100% 30.18 in 1.6 mi NNE 4.6 mph - N/A   Mostly Cloudy
7:00 AM 48 °F 48 °F 99% 30.22 in 2 mi NNE 4.5 mph - -   Mist
7:07 AM 48.2 °F 48.2 °F 100% 30.18 in 1.1 mi NNE 5.8 mph - N/A   Mostly Cloudy
7:19 AM 50.0 °F 50.0 °F 100% 30.18 in 0.7 mi ENE 6.9 mph - N/A   Overcast
7:25 AM 50.0 °F 50.0 °F 100% 30.18 in 0.4 mi ENE 6.9 mph - N/A Fog Fog
7:55 AM 50.0 °F 50.0 °F 100% 30.21 in 0.5 mi ENE 4.6 mph - N/A Fog Fog
8:00 AM 50 °F 50 °F 100% 30.22 in 0 mi ENE 4.5 mph - - Fog Partial Fog
8:13 AM 50.0 °F 50.0 °F 100% 30.21 in 1.0 mi ENE 5.8 mph - N/A   Mostly Cloudy
8:25 AM 51.8 °F 51.8 °F 100% 30.21 in 1.6 mi NE 5.8 mph - N/A   Mostly Cloudy
8:55 AM 51.8 °F 50.0 °F 94% 30.21 in 2.8 mi NNE 6.9 mph - N/A   Mostly Cloudy
9:00 AM 52 °F 51 °F 95% 30.23 in 3 mi NNE 6.7 mph - - Fog Light Fog
9:25 AM 51.8 °F 51.8 °F 100% 30.21 in 3.7 mi NE 5.8 mph - N/A   Mostly Cloudy
9:55 AM 53.6 °F 51.8 °F 94% 30.21 in 3.7 mi NNE 3.5 mph - N/A   Mostly Cloudy
10:00 AM 54 °F 52 °F 89% 30.24 in 4 mi NNE 6.7 mph - -   Mostly Cloudy
10:21 AM 55.4 °F 50.0 °F 82% 30.21 in 4.3 mi NNE 9.2 mph - N/A   Mostly Cloudy
10:25 AM 55.4 °F 51.8 °F 88% 30.24 in 5.0 mi NNE 8.1 mph - N/A   Mostly Cloudy
10:55 AM 55.4 °F 51.8 °F 88% 30.24 in 5.0 mi NNE 8.1 mph - N/A   Mostly Cloudy
11:00 AM 56 °F 51 °F 79% 30.24 in 5 mi NNE 8.9 mph - -   Partly Cloudy
11:25 AM 57.2 °F 51.8 °F 82% 30.24 in 6.2 mi NNE 9.2 mph - N/A   Scattered Clouds
11:55 AM 57.2 °F 51.8 °F 82% 30.24 in 5.0 mi NNE 10.4 mph - N/A   Scattered Clouds
12:00 PM 57 °F 52 °F 76% 30.24 in 5 mi NNE 11.2 mph - -   Partly Cloudy
12:25 PM 59.0 °F 51.8 °F 77% 30.24 in 5.0 mi NNE 9.2 mph - N/A   Scattered Clouds
12:55 PM 59.0 °F 51.8 °F 77% 30.24 in 5.0 mi NNE 9.2 mph - N/A   Scattered Clouds
1:00 PM 60 °F 52 °F 67% 30.23 in 5 mi NNE 8.9 mph - -   Partly Cloudy
1:25 PM 62.6 °F 51.8 °F 68% 30.24 in 5.6 mi ENE 9.2 mph - N/A   Scattered Clouds
1:55 PM 64.4 °F 50.0 °F 59% 30.21 in 6.2 mi NE 6.9 mph - N/A   Scattered Clouds
2:00 PM 64 °F 51 °F 52% 30.22 in 6 mi NE 6.7 mph - -   Partly Cloudy
2:25 PM 64.4 °F 51.8 °F 64% 30.21 in 6.2 mi NNE 9.2 mph - N/A   Scattered Clouds
2:55 PM 64.4 °F 51.8 °F 64% 30.21 in 6.2 mi NE 9.2 mph - N/A   Scattered Clouds
3:00 PM 64 °F 51 °F 54% 30.21 in 9 mi NNE 8.9 mph - -   Partly Cloudy
3:25 PM 64.4 °F 51.8 °F 64% 30.21 in 6.2 mi North 8.1 mph - N/A   Scattered Clouds
3:55 PM 64.4 °F 51.8 °F 64% 30.21 in 6.2 mi NNE 9.2 mph - N/A   Scattered Clouds
4:00 PM 65 °F 52 °F 53% 30.21 in 9 mi NNE 4.6 mph - -   Scattered Clouds
4:25 PM 64.4 °F 51.8 °F 64% 30.21 in 6.2 mi North 9.2 mph - N/A   Scattered Clouds
4:55 PM 64.4 °F 51.8 °F 64% 30.21 in 6.2 mi NNE 10.4 mph - N/A   Scattered Clouds
5:00 PM 65 °F 52 °F 52% 30.20 in 12 mi NNE 11.2 mph - -   Scattered Clouds
5:25 PM 64.4 °F 51.8 °F 64% 30.21 in 6.2 mi NNE 9.2 mph - N/A   Partly Cloudy
5:55 PM 64.4 °F 51.8 °F 64% 30.21 in 6.2 mi NE 9.2 mph - N/A   Scattered Clouds
6:00 PM 65 °F 52 °F 53% 30.19 in 12 mi NE 8.9 mph - -   Clear
6:25 PM 64.4 °F 50.0 °F 59% 30.21 in 6.2 mi NNE 10.4 mph - N/A   Partly Cloudy
6:55 PM 64.4 °F 50.0 °F 59% 30.21 in 6.2 mi NNE 10.4 mph - N/A   Partly Cloudy
7:00 PM 64 °F 50 °F 51% 30.19 in 16 mi NNE 11.2 mph - -   Clear
7:25 PM 62.6 °F 50.0 °F 63% 30.18 in 6.2 mi NNE 9.2 mph - N/A   Partly Cloudy
7:55 PM 62.6 °F 51.8 °F 68% 30.18 in 6.2 mi NNE 8.1 mph - N/A   Partly Cloudy
8:00 PM 63 °F 52 °F 59% 30.19 in 16 mi NNE 8.9 mph - -   Clear
8:25 PM 62.6 °F 51.8 °F 68% 30.18 in 6.2 mi NNE 5.8 mph - N/A   Partly Cloudy
8:55 PM 60.8 °F 53.6 °F 77% 30.18 in 6.2 mi NNE 6.9 mph - N/A   Partly Cloudy
9:00 PM 61 °F 53 °F 68% 30.19 in 16 mi NNE 6.7 mph - -   Clear
9:25 PM 59.0 °F 51.8 °F 77% 30.18 in 6.2 mi North 8.1 mph - N/A   Partly Cloudy
9:55 PM 57.2 °F 51.8 °F 82% 30.21 in 6.2 mi NNE 9.2 mph - N/A   Partly Cloudy
10:00 PM 58 °F 52 °F 73% 30.20 in 16 mi NNE 4.6 mph - -   Clear
10:25 PM 55.4 °F 51.8 °F 88% 30.21 in 6.2 mi NNE 6.9 mph - N/A   Partly Cloudy
10:55 PM 55.4 °F 51.8 °F 88% 30.21 in 6.2 mi NNE 4.6 mph - N/A   Partly Cloudy
11:00 PM 55 °F 51 °F 83% 30.22 in 16 mi NNE 6.7 mph - -   Clear
11:25 PM 53.6 °F 50.0 °F 88% 30.21 in 6.2 mi NNE 4.6 mph - N/A   Partly Cloudy
11:55 PM 53.6 °F 50.0 °F 88% 30.21 in 6.2 mi North 4.6 mph - N/A   Partly Cloudy